DW0170 Weather Reports


time (UTC)temp
F
wind
direction
speed
knots
gust
knots
rain 1hr
in
rain 24hr
in
rain mn
in
humidity
%
barometer
mb
20260505124543 49 190 5.2 9.6 0.00 0.10 0.02 88 1004.3
20260505123037 48 234 4.3 7.8 0.00 0.10 0.02 88 1004.3
20260505121543 47 196 3.5 8.7 0.00 0.10 0.02 89 1004.3
20260505120041 48 173 4.3 9.6 0.00 0.10 0.02 88 1004.4
20260505114537 49 206 3.5 11.3 0.00 0.10 0.02 89 1004.3
20260505113036 49 198 5.2 12.2 0.00 0.10 0.02 86 1004.3
20260505111540 50 215 5.2 10.4 0.00 0.10 0.02 84 1004.3
20260505101545 49 232 6.1 13.0 0.00 0.10 0.02 78 1004.2
20260505100044 49 206 5.2 14.8 0.00 0.10 0.02 77 1004.0
20260505094539 48 244 6.1 13.9 0.00 0.10 0.02 77 1004.0
20260505093039 48 252 8.7 13.9 0.00 0.10 0.02 75 1004.1
20260505091540 48 227 4.3 12.2 0.00 0.10 0.02 78 1004.1
20260505090044 49 230 5.2 12.2 0.00 0.10 0.02 75 1004.1
20260505084552 48 227 3.5 8.7 0.00 0.10 0.02 78 1003.7
20260505083054 48 173 0.0 1.7 0.00 0.10 0.02 85 1003.5
20260505081537 47 0 0.0 0.0 0.00 0.10 0.02 87 1003.6
20260505080044 46 0 0.0 0.0 0.00 0.10 0.02 86 1003.8
20260505074543 46 0 0.0 0.0 0.00 0.10 0.02 85 1004.0
20260505073045 45 0 0.0 0.0 0.00 0.10 0.02 84 1004.3
20260505071546 45 0 0.0 0.0 0.00 0.10 0.02 88 1004.3
20260505070037 44 0 0.0 0.0 0.00 0.10 0.02 90 1004.4
20260505064537 44 0 0.0 0.0 0.00 0.10 0.02 90 1004.5
20260505063040 44 0 0.0 0.0 0.00 0.10 0.02 90 1004.6
20260505061539 43 0 0.0 0.9 0.01 0.10 0.02 90 1004.8
20260505060045 43 0 0.0 0.0 0.01 0.10 0.02 91 1005.0
20260505054549 43 0 0.0 0.0 0.01 0.10 0.02 90 1005.1
20260505053036 43 0 0.0 0.0 0.01 0.10 0.02 90 1005.2
20260505051542 42 0 0.0 0.0 0.00 0.09 0.01 90 1005.2
20260505041536 42 0 0.0 0.0 0.01 0.09 0.01 89 1005.2
20260505040037 42 0 0.0 0.0 0.00 0.08 0.00 89 1005.4
20260505034538 42 0 0.0 0.0 0.00 0.08 0.00 88 1005.4
20260505033043 43 0 0.0 0.0 0.00 0.08 0.00 86 1005.6
20260505031551 43 0 0.0 0.0 0.00 0.08 0.00 85 1005.5
20260505030037 43 0 0.0 0.0 0.00 0.08 0.00 82 1005.5
20260505024546 44 0 0.0 1.7 0.00 0.08 0.00 81 1005.4
20260505023046 45 0 0.0 0.0 0.00 0.08 0.00 75 1005.4
20260505021538 45 0 0.0 0.0 0.00 0.08 0.00 74 1005.6
20260505020037 46 0 0.0 4.3 0.00 0.08 0.00 71 1005.6
20260505014558 47 291 2.6 8.7 0.00 0.08 0.00 67 1005.6
20260505013036 46 240 4.3 8.7 0.00 0.08 0.00 69 1006.0
20260505011548 46 238 3.5 8.7 0.00 0.08 0.00 70 1005.9
20260505010040 47 225 2.6 7.8 0.00 0.08 0.00 68 1006.0
20260505004541 47 250 6.1 11.3 0.00 0.08 0.00 69 1005.9
20260505003038 47 271 7.0 14.8 0.00 0.08 0.00 67 1006.4
20260505001543 47 244 7.0 13.9 0.00 0.08 0.00 69 1006.4
20260505000037 47 257 9.6 18.2 0.00 0.08 0.00 68 1006.6
20260504234535 48 249 7.8 13.9 0.00 0.08 0.00 67 1006.7
20260504233041 48 280 7.0 13.0 0.00 0.08 0.00 67 1006.6
20260504231541 48 267 5.2 13.0 0.00 0.08 0.00 66 1006.8
20260504230046 48 267 6.1 12.2 0.00 0.08 0.00 68 1006.9
20260504224545 48 232 6.1 14.8 0.00 0.08 0.00 69 1007.3
20260504223037 47 261 6.1 10.4 0.00 0.08 0.00 69 1007.4
20260504221542 47 252 5.2 12.2 0.00 0.08 0.00 69 1007.4
20260504220045 47 246 5.2 10.4 0.00 0.08 0.00 69 1007.6
20260504214536 47 267 7.0 13.0 0.00 0.08 0.08 70 1007.6
20260504213038 47 0 2.6 9.6 0.00 0.08 0.08 71 1007.6
20260504211537 47 235 5.2 10.4 0.00 0.08 0.08 71 1007.7
20260504210053 47 242 7.0 13.9 0.00 0.08 0.08 71 1008.0
20260504204554 47 252 5.2 11.3 0.00 0.08 0.08 72 1008.0
20260504203044 47 0 4.3 7.8 0.00 0.08 0.08 73 1008.2
20260504201539 47 258 4.3 9.6 0.00 0.08 0.08 75 1008.4
20260504200037 47 244 7.0 11.3 0.00 0.08 0.08 73 1008.5
20260504194537 47 244 4.3 10.4 0.00 0.08 0.08 73 1008.5
20260504193037 47 0 4.3 10.4 0.00 0.08 0.08 74 1008.5
20260504191535 47 253 4.3 10.4 0.00 0.08 0.08 75 1008.2
20260504190035 47 250 4.3 8.7 0.00 0.08 0.08 76 1008.5
20260504184543 47 234 4.3 9.6 0.00 0.08 0.08 77 1008.5
20260504183038 47 210 6.1 17.4 0.00 0.08 0.08 77 1008.6
20260504181539 47 233 5.2 9.6 0.00 0.08 0.08 79 1008.5
20260504180037 47 0 4.3 11.3 0.00 0.08 0.08 81 1008.6
20260504174537 46 294 3.5 9.6 0.00 0.08 0.08 85 1008.8
20260504173041 46 231 6.1 10.4 0.00 0.08 0.08 87 1008.9
20260504171541 46 0 2.6 10.4 0.00 0.08 0.08 90 1008.8